Location: *
(43.0409°N, 0.1694°E)
Time: 19:18:43
(UTC+00:00)

FENGYUN 1C DEB - Pass Details

Date: 20 June 2024
Orbit: 854 x 917 km, 98.8° (Epoch: 17 July)

Event Time Altitude Azimuth Distance (km) Brightness Sun altitude
Rises 20:59:56 0° 225° (SW) 3,501 ? -11.5°
Reaches altitude 10° 21:04:59 10° 264° (W) 2,586 ? -12.2°
Maximum altitude 21:06:00 10° 274° (W) 2,557 ? -12.3°
Drops below altitude 10° 21:07:03 10° 285° (WNW) 2,595 ? -12.4°
Sets 21:12:11 0° 324° (NW) 3,557 ? -13.0°
